Location: Poughquag
(41.6090°N, 73.6820°W)
Time: 08:32:04
(UTC-04:00)

Hubble Space Telescope - Pass Details

Date: 22 November 2019
Orbit: 536 x 540 km, 28.5° (Epoch: 13 July)

Event Time Altitude Azimuth Distance (km) Brightness Sun altitude
Rises 18:59:47 0° 239° (WSW) 2,668 5.3 -27.8°
Reaches altitude 10° 19:03:10 10° 211° (SSW) 1,778 3.8 -28.4°
Enters shadow 19:03:56 12° 200° (SSW) 1,671 3.5 -28.6°
